sat.trackr.live / text

‹ back to catalog

SENTINEL-3B

NORAD 43437 · 2018-039A

PAYLOAD ACTIVE UNKNOWN

§ Identity

Operator
Country
ESA
Launch date
2018-04-25
Launch site
PLMSC
Launch vehicle
Mass (kg)
RCS (m²)

Purposes: earth_obs

External: N2YO · Heavens-Above · Gunter

§ Orbital elements

Epoch: 2026-05-25T02:48:26.569152Z

Period
100.93 min
Inclination
98.6253°
Eccentricity
0.0001189
Mean motion
14.26733958 rev/d
Perigee alt
801.8 km
Apogee alt
803.5 km
Semi-major
7,180.8 km
B*
3.2259e-5
RAAN
212.9791°
Arg perigee
74.1690°
Mean anomaly
285.9622°
Rev number
42,083

§ Raw data

SENTINEL-3B1 43437U 18039A   26145.11697418  .00000034  00000+0  32259-4 0  99982 43437  98.6253 212.9791 0001189  74.1690 285.9622 14.26733958420832

JSON: /api/v1/satellites/43437 · /tle

For live sub-satellite position, see the globe view (requires WebGL).

§ Visibility from observer

Set your observer location to see the next 7 days of passes ≥ 10°. The values pass through the URL so the page stays shareable.

No JS? Fill the form by hand. The geolocation button needs JavaScript.